Location: Oshawa
(43.9000°N, 78.8670°W)
Time: 05:41:00
(UTC-04:00)

Cosmos 1821 Rocket - Visible Passes

Search period start: 18 September 2014 00:00
Search period end: 28 September 2014 00:00
Orbit: 946 x 1004 km, 82.9° (Epoch: 17 September)

Date Brightness Start Highest point End Pass type
(mag) Time Alt. Az. Time Alt. Az. Time Alt. Az.
18 Sep 7.2 04:31:13 10° E 04:31:56 10° ENE 04:32:39 10° ENE visible
18 Sep 4.5 06:09:45 10° S 06:16:04 70° E 06:22:26 10° NNE visible
19 Sep 6.6 04:52:25 10° SE 04:56:46 20° E 05:01:09 10° NE visible
20 Sep 5.7 05:16:10 10° SSE 05:21:48 35° E 05:27:28 10° NNE visible
21 Sep 4.7 05:40:45 10° S 05:46:59 61° E 05:53:16 10° NNE visible
22 Sep 6.7 04:23:57 10° ESE 04:27:47 17° E 04:31:38 10° NE visible
22 Sep 4.0 06:05:58 10° S 06:12:21 79° W 06:18:47 10° N visible
23 Sep 5.9 04:47:23 10° SE 04:52:46 30° E 04:58:10 10° NNE visible
23 Sep 4.4 06:31:48 10° SSW 06:37:53 46° WNW 06:44:01 10° N visible
24 Sep 4.9 05:11:46 10° SSE 05:17:55 52° E 05:24:05 10° NNE visible
25 Sep 6.7 03:55:38 10° ESE 03:58:49 14° ENE 04:02:00 10° NE visible
25 Sep 4.1 05:36:50 10° S 05:43:14 90° E 05:49:39 10° N visible
26 Sep 6.0 04:18:39 10° SE 04:23:45 26° E 04:28:50 10° NNE visible
26 Sep 4.2 06:02:30 10° SSW 06:08:43 53° WNW 06:14:58 10° N visible
27 Sep 5.1 04:42:51 10° SSE 04:48:51 45° E 04:54:52 10° NNE visible
27 Sep 4.8 06:28:50 10° SW 06:34:23 31° WNW 06:39:58 10° N visible
